FW1737 Weather Reports


Display with metric or nautical units.
time (UTC)temp
F
wind
direction
speed
MPH
gust
MPH
rain 1hr
in
rain 24hr
in
rain mn
in
humidity
%
barometer
mb
20260906143040 60 38 3.0 8.0 0.00 4.43 0.01 91 1002.5
20260906141539 59 15 2.0 9.0 0.00 4.43 0.01 93 1002.5
20260906140035 58 51 5.0 7.0 0.00 4.43 0.01 93 1002.4
20260906134533 58 33 2.0 5.0 0.01 4.62 0.01 94 1002.5
20260906133033 58 12 1.0 5.0 0.01 4.62 0.01 95 1002.5
20260906131541 58 355 2.0 5.0 0.01 4.62 0.01 95 1002.6
20260906130034 58 355 2.0 4.0 0.01 4.62 0.01 95 1002.5
20260906124529 57 10 1.0 6.0 0.00 4.61 0.00 93 1002.6
20260906123028 58 360 1.0 4.0 0.00 4.61 0.00 93 1002.4
20260906121527 57 5 1.0 6.0 0.00 4.61 0.00 93 1002.5
20260906120027 57 349 0.0 5.0 0.00 4.61 0.00 93 1002.5
20260906114526 57 12 1.0 5.0 0.00 4.61 0.00 94 1002.3
20260906113025 56 348 1.0 4.0 0.00 4.61 0.00 94 1002.4
20260906111524 56 16 1.0 4.0 0.00 4.61 0.00 94 1002.4
20260906110023 56 10 0.0 4.0 0.00 4.61 0.00 95 1002.4
20260906104534 56 327 1.0 5.0 0.00 4.65 0.00 95 1002.3
20260906103022 56 19 0.0 3.0 0.00 4.65 0.00 95 1002.2
20260906101521 56 17 0.0 4.0 0.00 4.65 0.00 95 1002.2
20260906100021 57 32 2.0 5.0 0.00 4.65 0.00 94 1002.1
20260906094534 57 42 0.0 5.0 0.00 4.74 0.00 94 1002.0
20260906093033 57 42 3.0 9.0 0.00 4.74 0.00 93 1001.9
20260906091519 57 30 2.0 11.0 0.00 4.74 0.00 94 1001.8
20260906090018 57 28 3.0 8.0 0.00 4.74 0.00 94 1001.8
20260906084523 57 38 1.0 6.0 0.00 4.88 0.00 94 1001.6
20260906083018 57 22 3.0 12.0 0.00 4.88 0.00 94 1001.6
20260906081515 57 48 3.0 6.0 0.00 4.88 0.00 95 1001.5
20260906080026 57 26 2.0 12.0 0.00 4.88 0.00 95 1001.5
20260906074515 57 37 2.0 7.0 0.00 4.94 0.00 95 1001.6
20260906073015 57 33 2.0 6.0 0.00 4.94 0.00 95 1001.6
20260906071514 57 40 4.0 10.0 0.00 4.94 0.00 95 1001.5
20260906070014 57 40 2.0 6.0 0.00 4.94 0.00 95 1001.3
20260906064515 57 38 5.0 10.0 0.00 5.04 0.00 95 1001.2
20260906063015 57 42 3.0 12.0 0.00 5.04 0.00 95 1001.1
20260906061513 57 43 5.0 11.0 0.00 5.04 0.00 96 1001.1
20260906060010 57 36 5.0 11.0 0.00 5.04 0.00 96 1001.1
20260906054513 57 32 6.0 12.0 0.00 5.13 0.00 96 1001.1
20260906053009 57 59 6.0 14.0 0.00 5.13 0.00 96 1001.0
20260906051507 57 66 6.0 15.0 0.00 5.13 0.00 96 1001.3
20260906050004 57 40 5.0 12.0 0.00 5.13 0.00 97 1001.4
20260906044507 57 50 4.0 15.0 0.00 5.13 0.00 97 1001.3
20260906043002 57 38 7.0 13.0 0.00 5.13 0.00 97 1001.5
20260906041605 56 32 5.0 13.0 0.00 5.13 0.00 97 1001.6
20260906040101 56 44 5.0 13.0 0.00 5.13 0.00 98 1001.6
20260906034556 56 17 4.0 14.0 0.00 5.13 0.00 98 1001.6
20260906033054 56 65 6.0 15.0 0.00 5.13 0.00 98 1001.8
20260906031551 56 30 5.0 13.0 0.00 5.13 0.00 98 1002.0
20260906030046 56 68 5.0 12.0 0.00 5.13 0.00 98 1002.3
20260906024559 56 39 8.0 14.0 0.01 5.13 0.04 99 1002.2
20260906023047 56 31 6.0 14.0 0.02 5.13 0.04 99 1002.4
20260906021543 56 43 8.0 19.0 0.04 5.13 0.04 99 1002.1
20260906020047 56 34 6.0 18.0 0.04 5.13 0.04 99 1002.4
20260906014552 56 26 9.0 19.0 0.03 5.12 0.03 99 1002.5
20260906013043 57 34 9.0 19.0 0.02 5.11 0.02 99 1002.5
20260906011541 57 55 12.0 21.0 0.00 5.09 0.00 98 1002.5
20260906010037 57 63 8.0 16.0 0.00 5.09 0.00 98 1002.5
20260906004541 57 32 8.0 14.0 0.00 5.09 0.00 98 1002.5
20260906003047 57 48 9.0 24.0 0.00 5.09 0.00 98 1002.4
20260906001533 57 38 7.0 23.0 0.00 5.09 0.00 98 1002.6
20260906000033 57 34 10.0 17.0 0.00 5.09 0.00 97 1002.5
20260905234532 57 51 11.0 17.0 0.00 5.09 0.00 98 1002.5
20260905233031 57 48 8.0 20.0 0.00 5.09 0.00 97 1002.5
20260905231530 57 65 4.0 18.0 0.00 5.09 0.00 98 1002.5
20260905230124 57 24 8.0 15.0 0.00 5.09 0.00 98 1002.4